Year,Month,Day,Hour,Minute,Value (Times are PST for temperature in C)
2018,12,07,00,00,1.60
2018,12,07,00,01,1.60
2018,12,07,00,02,1.60
2018,12,07,00,03,1.50
2018,12,07,00,04,1.50
2018,12,07,00,05,1.50
2018,12,07,00,06,1.50
2018,12,07,00,07,1.50
2018,12,07,00,08,1.50
2018,12,07,00,09,1.50
2018,12,07,00,10,1.50
2018,12,07,00,11,1.50
2018,12,07,00,12,1.60
2018,12,07,00,13,1.60
2018,12,07,00,14,1.60
2018,12,07,00,15,1.60
2018,12,07,00,16,1.60
2018,12,07,00,17,1.60
2018,12,07,00,18,1.60
2018,12,07,00,19,1.60
2018,12,07,00,20,1.60
2018,12,07,00,21,1.60
2018,12,07,00,22,1.60
2018,12,07,00,23,1.60
2018,12,07,00,24,1.60
2018,12,07,00,25,1.60
2018,12,07,00,26,1.60
2018,12,07,00,27,1.60
2018,12,07,00,28,1.60
2018,12,07,00,29,1.60
2018,12,07,00,30,1.60
2018,12,07,00,31,1.60
2018,12,07,00,32,1.60
2018,12,07,00,33,1.60
2018,12,07,00,34,1.70
2018,12,07,00,35,1.70
2018,12,07,00,36,1.70
2018,12,07,00,37,1.70
2018,12,07,00,38,1.70
2018,12,07,00,39,1.70
2018,12,07,00,40,1.70
2018,12,07,00,41,1.70
2018,12,07,00,42,1.70
2018,12,07,00,43,1.70
2018,12,07,00,44,1.70
2018,12,07,00,45,1.70
2018,12,07,00,46,1.70
2018,12,07,00,47,1.70
2018,12,07,00,48,1.70
2018,12,07,00,49,1.70
2018,12,07,00,50,1.70
2018,12,07,00,51,1.70
2018,12,07,00,52,1.70
2018,12,07,00,53,1.70
2018,12,07,00,54,1.70
2018,12,07,00,55,1.70
2018,12,07,00,56,1.70
2018,12,07,00,57,1.70
2018,12,07,00,58,1.70
2018,12,07,00,59,1.60
2018,12,07,01,00,1.60
2018,12,07,01,01,1.60
2018,12,07,01,02,1.60
2018,12,07,01,03,1.60
2018,12,07,01,04,1.60
2018,12,07,01,05,1.60
2018,12,07,01,06,1.60
2018,12,07,01,07,1.60
2018,12,07,01,08,1.60
2018,12,07,01,09,1.60
2018,12,07,01,10,1.60
2018,12,07,01,11,1.60
2018,12,07,01,12,1.60
2018,12,07,01,13,1.60
2018,12,07,01,14,1.70
2018,12,07,01,15,1.70
2018,12,07,01,16,1.70
2018,12,07,01,17,1.70
2018,12,07,01,18,1.70
2018,12,07,01,19,1.70
2018,12,07,01,20,1.70
2018,12,07,01,21,1.70
2018,12,07,01,22,1.70
2018,12,07,01,23,1.70
2018,12,07,01,24,1.70
2018,12,07,01,25,1.70
2018,12,07,01,26,1.70
2018,12,07,01,27,1.70
2018,12,07,01,28,1.70
2018,12,07,01,29,1.80
2018,12,07,01,30,1.80
2018,12,07,01,31,1.80
2018,12,07,01,32,1.70
2018,12,07,01,33,1.70
2018,12,07,01,34,1.70
2018,12,07,01,35,1.70
2018,12,07,01,36,1.70
2018,12,07,01,37,1.70
2018,12,07,01,38,1.70
2018,12,07,01,39,1.70
2018,12,07,01,40,1.70
2018,12,07,01,41,1.70
2018,12,07,01,42,1.70
2018,12,07,01,43,1.70
2018,12,07,01,44,1.70
2018,12,07,01,45,1.70
2018,12,07,01,46,1.60
2018,12,07,01,47,1.60
2018,12,07,01,48,1.60
2018,12,07,01,49,1.60
2018,12,07,01,50,1.60
2018,12,07,01,51,1.60
2018,12,07,01,52,1.50
2018,12,07,01,53,1.50
2018,12,07,01,54,1.50
2018,12,07,01,55,1.50
2018,12,07,01,56,1.50
2018,12,07,01,57,1.50
2018,12,07,01,58,1.40
2018,12,07,01,59,1.40
2018,12,07,02,00,1.40
2018,12,07,02,01,1.40
2018,12,07,02,02,1.40
2018,12,07,02,03,1.40
2018,12,07,02,04,1.40
2018,12,07,02,05,1.40
2018,12,07,02,06,1.40
2018,12,07,02,07,1.40
2018,12,07,02,08,1.40
2018,12,07,02,09,1.40
2018,12,07,02,10,1.40
2018,12,07,02,11,1.40
2018,12,07,02,12,1.40
2018,12,07,02,13,1.40
2018,12,07,02,14,1.40
2018,12,07,02,15,1.40
2018,12,07,02,16,1.40
2018,12,07,02,17,1.40
2018,12,07,02,18,1.40
2018,12,07,02,19,1.40
2018,12,07,02,20,1.40
2018,12,07,02,21,1.40
2018,12,07,02,22,1.40
2018,12,07,02,23,1.40
2018,12,07,02,24,1.40
2018,12,07,02,25,1.40
2018,12,07,02,26,1.40
2018,12,07,02,27,1.40
2018,12,07,08,23,1.10
2018,12,07,08,24,1.10
2018,12,07,08,25,1.10
2018,12,07,08,26,1.10
2018,12,07,08,27,1.10
2018,12,07,08,28,1.10
2018,12,07,08,29,1.10
2018,12,07,08,30,1.10
2018,12,07,08,31,1.10
2018,12,07,08,32,1.10
2018,12,07,08,33,1.10
2018,12,07,08,34,1.10
2018,12,07,08,35,1.20
2018,12,07,08,36,1.20
2018,12,07,08,37,1.20
2018,12,07,08,38,1.20
2018,12,07,08,39,1.20
2018,12,07,08,40,1.20
2018,12,07,08,41,1.20
2018,12,07,08,42,1.20
2018,12,07,08,43,1.20
2018,12,07,08,44,1.20
2018,12,07,08,45,1.30
2018,12,07,08,46,1.30
2018,12,07,08,47,1.30
2018,12,07,08,48,1.30
2018,12,07,08,49,1.30
2018,12,07,08,50,1.40
2018,12,07,08,51,1.40
2018,12,07,08,52,1.40
2018,12,07,08,53,1.50
2018,12,07,08,54,1.60
2018,12,07,08,55,1.60
2018,12,07,08,56,1.70
2018,12,07,08,57,1.70
2018,12,07,08,58,1.70
2018,12,07,08,59,1.80
2018,12,07,09,00,1.80
2018,12,07,09,01,1.90
2018,12,07,09,02,1.90
2018,12,07,09,03,2.00
2018,12,07,09,04,2.00
2018,12,07,09,05,2.10
2018,12,07,09,06,2.10
2018,12,07,09,07,2.20
2018,12,07,09,08,2.20
2018,12,07,09,09,2.20
2018,12,07,09,10,2.30
2018,12,07,09,11,2.30
2018,12,07,09,12,2.30
2018,12,07,09,13,2.40
2018,12,07,09,14,2.50
2018,12,07,09,15,2.50
2018,12,07,09,16,2.60
2018,12,07,09,17,2.60
2018,12,07,09,18,2.70
2018,12,07,09,19,2.70
2018,12,07,09,20,2.70
2018,12,07,09,21,2.80
2018,12,07,09,22,2.80
2018,12,07,09,23,2.80
2018,12,07,09,24,2.90
2018,12,07,09,25,2.90
2018,12,07,09,26,2.90
2018,12,07,09,27,3.00
2018,12,07,09,28,3.00
2018,12,07,09,29,3.10
2018,12,07,09,30,3.10
2018,12,07,09,31,3.10
2018,12,07,09,32,3.20
2018,12,07,09,33,3.20
2018,12,07,09,34,3.20
2018,12,07,09,35,3.20
2018,12,07,09,36,3.20
2018,12,07,09,37,3.30
2018,12,07,09,38,3.30
2018,12,07,09,39,3.30
2018,12,07,09,40,3.30
2018,12,07,09,41,3.40
2018,12,07,09,42,3.40
2018,12,07,09,43,3.40
2018,12,07,09,44,3.50
2018,12,07,09,45,3.50
2018,12,07,09,46,3.60
2018,12,07,09,47,3.60
2018,12,07,09,48,3.60
2018,12,07,09,49,3.70
2018,12,07,09,50,3.70
2018,12,07,09,51,3.70
2018,12,07,09,52,3.80
2018,12,07,09,53,3.80
2018,12,07,09,54,3.80
2018,12,07,09,55,3.90
2018,12,07,09,56,3.90
2018,12,07,09,57,4.00
2018,12,07,09,58,4.00
2018,12,07,09,59,4.10
2018,12,07,10,00,4.10
2018,12,07,10,01,4.20
2018,12,07,10,02,4.20
2018,12,07,10,03,4.30
2018,12,07,10,04,4.40
2018,12,07,10,05,4.40
2018,12,07,10,06,4.50
2018,12,07,10,07,4.50
2018,12,07,10,08,4.60
2018,12,07,10,09,4.60
2018,12,07,10,10,4.70
2018,12,07,10,11,4.70
2018,12,07,10,12,4.80
2018,12,07,10,13,4.80
2018,12,07,10,14,4.80
2018,12,07,10,15,4.80
2018,12,07,10,16,4.90
2018,12,07,10,17,4.90
2018,12,07,10,18,4.90
2018,12,07,10,19,4.90
2018,12,07,10,20,5.00
2018,12,07,10,21,5.00
2018,12,07,10,22,5.10
2018,12,07,10,23,5.10
2018,12,07,10,24,5.10
2018,12,07,10,25,5.20
2018,12,07,10,26,5.20
2018,12,07,10,27,5.20
2018,12,07,10,28,5.20
2018,12,07,10,29,5.30
2018,12,07,10,30,5.30
2018,12,07,10,31,5.30
2018,12,07,10,32,5.40
2018,12,07,10,33,5.40
2018,12,07,10,34,5.40
2018,12,07,10,35,5.40
2018,12,07,10,36,5.40
2018,12,07,10,37,5.50
2018,12,07,10,38,5.50
2018,12,07,10,39,5.60
2018,12,07,10,40,5.60
2018,12,07,10,41,5.60
2018,12,07,10,42,5.70
2018,12,07,10,43,5.70
2018,12,07,10,44,5.70
2018,12,07,10,45,5.80
2018,12,07,10,46,5.80
2018,12,07,10,47,5.80
2018,12,07,10,48,5.80
2018,12,07,10,49,5.80
2018,12,07,10,50,5.80
2018,12,07,10,51,5.80
2018,12,07,10,52,5.80
2018,12,07,10,53,5.80
2018,12,07,10,54,5.80
2018,12,07,10,55,5.90
2018,12,07,10,56,5.90
2018,12,07,10,57,5.90
2018,12,07,10,58,5.90
2018,12,07,10,59,5.90
2018,12,07,11,00,5.90
2018,12,07,11,01,5.90
2018,12,07,11,02,5.90
2018,12,07,11,03,5.90
2018,12,07,11,04,5.90
2018,12,07,11,05,5.80
2018,12,07,11,06,5.80
2018,12,07,11,07,5.80
2018,12,07,11,08,5.80
2018,12,07,11,09,5.80
2018,12,07,11,10,5.80
2018,12,07,11,11,5.80
2018,12,07,11,12,5.80
2018,12,07,11,13,5.70
2018,12,07,11,14,5.70
2018,12,07,11,15,5.70
2018,12,07,11,16,5.70
2018,12,07,11,17,5.70
2018,12,07,11,18,5.70
2018,12,07,11,19,5.70
2018,12,07,11,20,5.70
2018,12,07,11,21,5.70
2018,12,07,11,22,5.70
2018,12,07,11,23,5.80
2018,12,07,11,24,5.80
2018,12,07,11,25,5.70
2018,12,07,11,26,5.70
2018,12,07,11,27,5.70
2018,12,07,11,28,5.70
2018,12,07,11,29,5.70
2018,12,07,11,30,5.70
2018,12,07,11,31,5.70
2018,12,07,11,32,5.70
2018,12,07,11,33,5.70
2018,12,07,11,34,5.70
2018,12,07,11,35,5.70
2018,12,07,11,36,5.70
2018,12,07,11,37,5.70
2018,12,07,11,38,5.70
2018,12,07,11,39,5.70
2018,12,07,11,40,5.70
2018,12,07,11,41,5.70
2018,12,07,11,42,5.70
2018,12,07,11,43,5.70
2018,12,07,11,44,5.70
2018,12,07,11,45,5.70
2018,12,07,11,46,5.70
2018,12,07,11,47,5.70
2018,12,07,11,48,5.70
2018,12,07,11,49,5.70
2018,12,07,11,50,5.70
2018,12,07,11,51,5.80
2018,12,07,11,52,5.80
2018,12,07,11,53,5.80
2018,12,07,11,54,5.90
2018,12,07,11,55,5.90
2018,12,07,11,56,5.90
2018,12,07,11,57,5.90
2018,12,07,11,58,6.00
2018,12,07,11,59,6.00
2018,12,07,12,00,6.10
2018,12,07,12,01,6.10
2018,12,07,12,02,6.20
2018,12,07,12,03,6.20
2018,12,07,12,04,6.20
2018,12,07,12,05,6.30
2018,12,07,12,06,6.30
2018,12,07,12,07,6.30
2018,12,07,12,08,6.30
2018,12,07,12,09,6.30
2018,12,07,12,10,6.30
2018,12,07,12,11,6.30
2018,12,07,12,12,6.30
2018,12,07,12,13,6.30
2018,12,07,12,14,6.30
2018,12,07,12,15,6.30
2018,12,07,12,16,6.40
2018,12,07,12,17,6.40
2018,12,07,12,18,6.40
2018,12,07,12,19,6.40
2018,12,07,12,20,6.40
2018,12,07,12,21,6.40
2018,12,07,12,22,6.40
2018,12,07,12,23,6.40
2018,12,07,12,24,6.40
2018,12,07,12,25,6.40
2018,12,07,12,26,6.40
2018,12,07,12,27,6.40
2018,12,07,12,28,6.40
2018,12,07,12,29,6.40
2018,12,07,12,30,6.40
2018,12,07,12,31,6.40
2018,12,07,12,32,6.40
2018,12,07,12,33,6.40
2018,12,07,12,34,6.40
2018,12,07,12,35,6.40
2018,12,07,12,36,6.40
2018,12,07,12,37,6.50
2018,12,07,12,38,6.50
2018,12,07,12,39,6.50
2018,12,07,12,40,6.40
2018,12,07,12,41,6.40
2018,12,07,12,42,6.30
2018,12,07,12,43,6.30
2018,12,07,12,44,6.30
2018,12,07,12,45,6.30
2018,12,07,12,46,6.30
2018,12,07,12,47,6.30
2018,12,07,12,48,6.30
2018,12,07,12,49,6.30
2018,12,07,12,50,6.30
2018,12,07,12,51,6.30
2018,12,07,12,52,6.30
2018,12,07,12,53,6.30
2018,12,07,12,54,6.30
2018,12,07,12,55,6.30
2018,12,07,12,56,6.30
2018,12,07,12,57,6.30
2018,12,07,12,58,6.30
2018,12,07,12,59,6.30
2018,12,07,13,00,6.20
2018,12,07,13,01,6.20
2018,12,07,13,02,6.20
2018,12,07,13,03,6.20
2018,12,07,13,04,6.20
2018,12,07,13,05,6.20
2018,12,07,13,06,6.20
2018,12,07,13,07,6.20
2018,12,07,13,08,6.30
2018,12,07,13,09,6.30
2018,12,07,13,10,6.30
2018,12,07,13,11,6.30
2018,12,07,13,12,6.30
2018,12,07,13,13,6.30
2018,12,07,13,14,6.30
2018,12,07,13,15,6.30
2018,12,07,13,16,6.30
2018,12,07,13,17,6.40
2018,12,07,13,18,6.40
2018,12,07,13,19,6.40
2018,12,07,13,20,6.40
2018,12,07,13,21,6.50
2018,12,07,13,22,6.50
2018,12,07,13,23,6.50
2018,12,07,13,24,6.60
2018,12,07,13,25,6.60
2018,12,07,13,26,6.60
2018,12,07,13,27,6.60
2018,12,07,13,28,6.60
2018,12,07,13,29,6.60
2018,12,07,13,30,6.60
2018,12,07,13,31,6.60
2018,12,07,13,32,6.60
2018,12,07,13,33,6.60
2018,12,07,13,34,6.60
2018,12,07,13,35,6.60
2018,12,07,13,36,6.60
2018,12,07,13,37,6.60
2018,12,07,13,38,6.60
2018,12,07,13,39,6.60
2018,12,07,13,40,6.50
2018,12,07,13,41,6.50
2018,12,07,13,42,6.50
2018,12,07,13,43,6.50
2018,12,07,13,44,6.50
2018,12,07,13,45,6.40
2018,12,07,13,46,6.40
2018,12,07,13,47,6.40
2018,12,07,13,48,6.40
2018,12,07,13,49,6.40
2018,12,07,13,50,6.40
2018,12,07,13,51,6.40
2018,12,07,13,52,6.30
2018,12,07,13,53,6.30
2018,12,07,13,54,6.30
2018,12,07,13,55,6.30
2018,12,07,13,56,6.30
2018,12,07,13,57,6.20
2018,12,07,13,58,6.20
2018,12,07,13,59,6.20
2018,12,07,14,00,6.20
2018,12,07,14,01,6.20
2018,12,07,14,02,6.20
2018,12,07,14,03,6.10
2018,12,07,14,04,6.10
2018,12,07,14,05,6.10
2018,12,07,14,06,6.00
2018,12,07,14,07,6.00
2018,12,07,14,08,6.00
2018,12,07,14,09,5.90
2018,12,07,14,10,5.90
2018,12,07,14,11,5.90
2018,12,07,14,12,5.90
2018,12,07,14,13,5.90
2018,12,07,14,14,5.80
2018,12,07,14,15,5.80
2018,12,07,14,16,5.80
2018,12,07,14,17,5.80
2018,12,07,14,18,5.80
2018,12,07,14,19,5.80
2018,12,07,14,20,5.80
2018,12,07,14,21,5.80
2018,12,07,14,22,5.80
2018,12,07,14,23,5.80
2018,12,07,14,24,5.80
2018,12,07,14,25,5.80
2018,12,07,14,26,5.90
2018,12,07,14,27,5.80
2018,12,07,14,28,5.80
2018,12,07,14,29,5.80
2018,12,07,14,30,5.90
2018,12,07,14,31,5.80
2018,12,07,14,32,5.80
2018,12,07,14,33,5.80
2018,12,07,14,34,5.80
2018,12,07,14,35,5.80
2018,12,07,14,36,5.80
2018,12,07,14,37,5.80
2018,12,07,14,38,5.80
2018,12,07,14,39,5.80
2018,12,07,14,40,5.80
2018,12,07,14,41,5.80
2018,12,07,14,42,5.80
2018,12,07,14,43,5.80
2018,12,07,14,44,5.80
2018,12,07,14,45,5.80
2018,12,07,14,46,5.80
2018,12,07,14,47,5.80
2018,12,07,14,48,5.80
2018,12,07,14,49,5.80
2018,12,07,14,50,5.80
2018,12,07,14,51,5.80
2018,12,07,14,52,5.80
2018,12,07,14,53,5.80
2018,12,07,14,54,5.80
2018,12,07,14,55,5.80
2018,12,07,14,56,5.80
2018,12,07,14,57,5.80
2018,12,07,14,58,5.80
2018,12,07,14,59,5.80
2018,12,07,15,00,5.80
2018,12,07,15,01,5.80
2018,12,07,15,02,5.80
2018,12,07,15,03,5.80
2018,12,07,15,04,5.80
2018,12,07,15,05,5.80
2018,12,07,15,06,5.80
2018,12,07,15,07,5.80
2018,12,07,15,08,5.80
2018,12,07,15,09,5.80
2018,12,07,15,10,5.80
2018,12,07,15,11,5.80
2018,12,07,15,12,5.80
2018,12,07,15,13,5.80
2018,12,07,15,14,5.80
2018,12,07,15,15,5.80
2018,12,07,15,16,5.80
2018,12,07,15,17,5.70
2018,12,07,15,18,5.70
2018,12,07,15,19,5.70
2018,12,07,15,20,5.70
2018,12,07,15,21,5.70
2018,12,07,15,22,5.70
2018,12,07,15,23,5.70
2018,12,07,15,24,5.70
2018,12,07,15,25,5.70
2018,12,07,15,26,5.70
2018,12,07,15,27,5.70
2018,12,07,15,28,5.60
2018,12,07,15,29,5.60
2018,12,07,15,30,5.60
2018,12,07,15,31,5.60
2018,12,07,15,32,5.60
2018,12,07,15,33,5.60
2018,12,07,15,34,5.60
2018,12,07,15,35,5.60
2018,12,07,15,36,5.50
2018,12,07,15,37,5.50
2018,12,07,15,38,5.50
2018,12,07,15,39,5.50
2018,12,07,15,40,5.50
2018,12,07,15,41,5.40
2018,12,07,15,42,5.40
2018,12,07,15,43,5.40
2018,12,07,15,44,5.30
2018,12,07,15,45,5.20
2018,12,07,15,46,5.20
2018,12,07,15,47,5.10
2018,12,07,15,48,5.10
2018,12,07,15,49,5.00
2018,12,07,15,50,4.90
2018,12,07,15,51,4.90
2018,12,07,15,52,4.90
2018,12,07,15,53,4.80
2018,12,07,15,54,4.80
2018,12,07,15,55,4.80
2018,12,07,15,56,4.80
2018,12,07,15,57,4.70
2018,12,07,15,58,4.70
2018,12,07,15,59,4.70
2018,12,07,16,00,4.70
2018,12,07,16,01,4.60
2018,12,07,16,02,4.60
2018,12,07,16,03,4.60
2018,12,07,16,04,4.60
2018,12,07,16,05,4.60
2018,12,07,16,06,4.60
2018,12,07,16,07,4.60
2018,12,07,16,08,4.60
2018,12,07,16,09,4.60
2018,12,07,16,10,4.50
2018,12,07,16,11,4.50
2018,12,07,16,12,4.50
2018,12,07,16,13,4.50
2018,12,07,16,14,4.50
2018,12,07,16,15,4.50
2018,12,07,16,16,4.50
2018,12,07,16,17,4.50
2018,12,07,16,18,4.50
2018,12,07,16,19,4.50
2018,12,07,16,20,4.50
2018,12,07,16,21,4.50
2018,12,07,16,22,4.40
2018,12,07,16,23,4.40
2018,12,07,16,24,4.40
2018,12,07,16,25,4.40
2018,12,07,16,26,4.40
2018,12,07,16,27,4.40
2018,12,07,16,28,4.40
2018,12,07,16,29,4.40
2018,12,07,16,30,4.40
2018,12,07,16,31,4.40
2018,12,07,16,32,4.40
2018,12,07,16,33,4.40
2018,12,07,16,34,4.30
2018,12,07,16,35,4.30
2018,12,07,16,36,4.30
2018,12,07,16,37,4.30
2018,12,07,16,38,4.30
2018,12,07,16,39,4.30
2018,12,07,16,40,4.30
2018,12,07,16,41,4.30
2018,12,07,16,42,4.30
2018,12,07,16,43,4.30
2018,12,07,16,44,4.30
2018,12,07,16,45,4.30
2018,12,07,16,46,4.30
2018,12,07,16,47,4.30
2018,12,07,16,48,4.30
2018,12,07,16,49,4.30
2018,12,07,16,50,4.30
2018,12,07,16,51,4.30
2018,12,07,16,52,4.30
2018,12,07,16,53,4.30
2018,12,07,16,54,4.30
2018,12,07,16,55,4.30
2018,12,07,16,56,4.30
2018,12,07,16,57,4.30
2018,12,07,16,58,4.20
2018,12,07,16,59,4.20
2018,12,07,17,00,4.20
2018,12,07,17,01,4.20
2018,12,07,17,02,4.20
2018,12,07,17,03,4.20
2018,12,07,17,04,4.20
2018,12,07,17,05,4.20
2018,12,07,17,06,4.10
2018,12,07,17,07,4.10
2018,12,07,17,08,4.10
2018,12,07,17,09,4.10
2018,12,07,17,10,4.10
2018,12,07,17,11,4.10
2018,12,07,17,12,4.10
2018,12,07,17,13,4.10
2018,12,07,17,14,4.10
2018,12,07,17,15,4.10
2018,12,07,17,16,4.00
2018,12,07,17,17,4.00
2018,12,07,17,18,4.00
2018,12,07,17,19,4.00
2018,12,07,17,20,4.00
2018,12,07,17,21,4.00
2018,12,07,17,22,3.90
2018,12,07,17,23,3.90
2018,12,07,17,24,3.90
2018,12,07,17,25,3.90
2018,12,07,17,26,3.90
2018,12,07,17,27,3.90
2018,12,07,17,28,3.90
2018,12,07,17,29,3.90
2018,12,07,17,30,3.90
2018,12,07,17,31,3.90
2018,12,07,17,32,3.90
2018,12,07,17,33,3.90
2018,12,07,17,34,3.90
2018,12,07,17,35,3.90
2018,12,07,17,36,3.90
2018,12,07,17,37,3.90
2018,12,07,17,38,3.90
2018,12,07,17,39,3.90
2018,12,07,17,40,3.90
2018,12,07,17,41,3.90
2018,12,07,17,42,3.90
2018,12,07,17,43,3.90
2018,12,07,17,44,3.90
2018,12,07,17,45,3.80
2018,12,07,17,46,3.80
2018,12,07,17,47,3.80
2018,12,07,17,48,3.80
2018,12,07,17,49,3.80
2018,12,07,17,50,3.80
2018,12,07,17,51,3.80
2018,12,07,17,52,3.80
2018,12,07,17,53,3.80
2018,12,07,17,54,3.80
2018,12,07,17,55,3.80
2018,12,07,17,56,3.80
2018,12,07,17,57,3.80
2018,12,07,17,58,3.70
2018,12,07,17,59,3.70
2018,12,07,18,00,3.70
2018,12,07,18,01,3.70
2018,12,07,18,02,3.70
2018,12,07,18,03,3.70
2018,12,07,18,04,3.70
2018,12,07,18,05,3.70
2018,12,07,18,06,3.70
2018,12,07,18,07,3.70
2018,12,07,18,08,3.70
2018,12,07,18,09,3.70
2018,12,07,18,10,3.70
2018,12,07,18,11,3.70
2018,12,07,18,12,3.70
2018,12,07,18,13,3.70
2018,12,07,18,14,3.70
2018,12,07,18,15,3.70
2018,12,07,18,16,3.70
2018,12,07,18,17,3.70
2018,12,07,18,18,3.70
2018,12,07,18,19,3.70
2018,12,07,18,20,3.70
2018,12,07,18,21,3.70
2018,12,07,18,22,3.70
2018,12,07,18,23,3.80
2018,12,07,18,24,3.80
2018,12,07,18,25,3.80
2018,12,07,18,26,3.80
2018,12,07,18,27,3.80
2018,12,07,18,28,3.80
2018,12,07,18,29,3.80
2018,12,07,18,30,3.80
2018,12,07,18,31,3.80
2018,12,07,18,32,3.80
2018,12,07,18,33,3.80
2018,12,07,18,34,3.80
2018,12,07,18,35,3.90
2018,12,07,18,36,3.90
2018,12,07,18,37,3.90
2018,12,07,18,38,3.90
2018,12,07,18,39,3.90
2018,12,07,18,40,3.90
2018,12,07,18,41,4.00
2018,12,07,18,42,4.00
2018,12,07,18,43,4.00
2018,12,07,18,44,4.10
2018,12,07,18,45,4.10
2018,12,07,18,46,4.10
2018,12,07,18,47,4.10
2018,12,07,18,48,4.10
2018,12,07,18,49,4.10
2018,12,07,18,50,4.20
2018,12,07,18,51,4.20
2018,12,07,18,52,4.20
2018,12,07,18,53,4.20
2018,12,07,18,54,4.20
2018,12,07,18,55,4.20
2018,12,07,18,56,4.20
2018,12,07,18,57,4.20
2018,12,07,18,58,4.20
2018,12,07,18,59,4.20
2018,12,07,19,00,4.20
2018,12,07,19,01,4.20
2018,12,07,19,02,4.20
2018,12,07,19,03,4.20
2018,12,07,19,04,4.20
2018,12,07,19,05,4.20
2018,12,07,19,06,4.20
2018,12,07,19,07,4.20
2018,12,07,19,08,4.20
2018,12,07,19,09,4.20
2018,12,07,19,10,4.20
2018,12,07,19,11,4.20
2018,12,07,19,12,4.20
2018,12,07,19,13,4.10
2018,12,07,19,14,4.10
2018,12,07,19,15,4.10
2018,12,07,19,16,4.10
2018,12,07,19,17,4.10
2018,12,07,19,18,4.10
2018,12,07,19,19,4.10
2018,12,07,19,20,4.10
2018,12,07,19,21,4.10
2018,12,07,19,22,4.10
2018,12,07,19,23,4.10
2018,12,07,19,24,4.10
2018,12,07,19,25,4.10
2018,12,07,19,26,4.10
2018,12,07,19,27,4.10
2018,12,07,19,28,4.10
2018,12,07,19,29,4.10
2018,12,07,19,30,4.10
2018,12,07,19,31,4.10
2018,12,07,19,32,4.20
2018,12,07,19,33,4.20
2018,12,07,19,34,4.20
2018,12,07,19,35,4.20
2018,12,07,19,36,4.20
2018,12,07,19,37,4.20
2018,12,07,19,38,4.20
2018,12,07,19,39,4.20
2018,12,07,19,40,4.20
2018,12,07,19,41,4.20
2018,12,07,19,42,4.20
2018,12,07,19,43,4.20
2018,12,07,19,44,4.20
2018,12,07,19,45,4.20
2018,12,07,19,46,4.30
2018,12,07,19,47,4.30
2018,12,07,19,48,4.30
2018,12,07,19,49,4.30
2018,12,07,19,50,4.30
2018,12,07,19,51,4.30
2018,12,07,19,52,4.30
2018,12,07,19,53,4.40
2018,12,07,19,54,4.40
2018,12,07,19,55,4.40
2018,12,07,19,56,4.40
2018,12,07,19,57,4.40
2018,12,07,19,58,4.40
2018,12,07,19,59,4.50
2018,12,07,20,00,4.50
2018,12,07,20,01,4.50
2018,12,07,20,02,4.50
2018,12,07,20,03,4.50
2018,12,07,20,04,4.60
2018,12,07,20,05,4.60
2018,12,07,20,06,4.60
2018,12,07,20,07,4.60
2018,12,07,20,08,4.60
2018,12,07,20,09,4.60
2018,12,07,20,10,4.60
2018,12,07,20,11,4.60
2018,12,07,20,12,4.60
2018,12,07,20,13,4.70
2018,12,07,20,14,4.70
2018,12,07,20,15,4.70
2018,12,07,20,16,4.70
2018,12,07,20,17,4.70
2018,12,07,20,18,4.70
2018,12,07,20,19,4.70
2018,12,07,20,20,4.80
2018,12,07,20,21,4.80
2018,12,07,20,22,4.80
2018,12,07,20,23,4.80
2018,12,07,20,24,4.80
2018,12,07,20,25,4.80
2018,12,07,20,26,4.80
2018,12,07,20,27,4.80
2018,12,07,20,28,4.80
2018,12,07,20,29,4.80
2018,12,07,20,30,4.80
2018,12,07,20,31,4.80
2018,12,07,20,32,4.80
2018,12,07,20,33,4.80
2018,12,07,20,34,4.80
2018,12,07,20,35,4.80
2018,12,07,20,36,4.80
2018,12,07,20,37,4.80
2018,12,07,20,38,4.80
2018,12,07,20,39,4.80
2018,12,07,20,40,4.80
2018,12,07,20,41,4.80
2018,12,07,20,42,4.80
2018,12,07,20,43,4.80
2018,12,07,20,44,4.80
2018,12,07,20,45,4.80
2018,12,07,20,46,4.80
2018,12,07,20,47,4.80
2018,12,07,20,48,4.80
2018,12,07,20,49,4.90
2018,12,07,20,50,4.90
2018,12,07,20,51,4.90
2018,12,07,20,52,4.90
2018,12,07,20,53,4.90
2018,12,07,20,54,4.90
2018,12,07,20,55,4.90
2018,12,07,20,56,4.90
2018,12,07,20,57,4.90
2018,12,07,20,58,4.90
2018,12,07,20,59,4.90
2018,12,07,21,00,4.90
2018,12,07,21,01,4.90
2018,12,07,21,02,5.00
2018,12,07,21,03,5.00
2018,12,07,21,04,5.00
2018,12,07,21,05,5.00
2018,12,07,21,06,5.00
2018,12,07,21,07,5.00
2018,12,07,21,08,5.00
2018,12,07,21,09,5.00
2018,12,07,21,10,5.00
2018,12,07,21,11,5.00
2018,12,07,21,12,5.10
2018,12,07,21,13,5.10
2018,12,07,21,14,5.10
2018,12,07,21,15,5.10
2018,12,07,21,16,5.10
2018,12,07,21,17,5.10
2018,12,07,21,18,5.10
2018,12,07,21,19,5.10
2018,12,07,21,20,5.00
2018,12,07,21,21,5.00
2018,12,07,21,22,5.00
2018,12,07,21,23,5.00
2018,12,07,21,24,5.00
2018,12,07,21,25,5.00
2018,12,07,21,26,5.00
2018,12,07,21,27,5.00
2018,12,07,21,28,5.00
2018,12,07,21,29,5.00
2018,12,07,21,30,5.00
2018,12,07,21,31,5.00
2018,12,07,21,32,5.00
2018,12,07,21,33,5.00
2018,12,07,21,34,5.00
2018,12,07,21,35,5.00
2018,12,07,21,36,5.00
2018,12,07,21,37,4.90
2018,12,07,21,38,4.90
2018,12,07,21,39,4.90
2018,12,07,21,40,4.90
2018,12,07,21,41,4.90
2018,12,07,21,42,4.90
2018,12,07,21,43,4.90
2018,12,07,21,44,4.90
2018,12,07,21,45,4.90
2018,12,07,21,46,4.90
2018,12,07,21,47,4.90
2018,12,07,21,48,4.90
2018,12,07,21,49,4.90
2018,12,07,21,50,4.90
2018,12,07,21,51,4.90
2018,12,07,21,52,4.90
2018,12,07,21,53,4.90
2018,12,07,21,54,4.90
2018,12,07,21,55,4.90
2018,12,07,21,56,4.90
2018,12,07,21,57,4.90
2018,12,07,21,58,4.90
2018,12,07,21,59,4.90
2018,12,07,22,00,4.90
2018,12,07,22,01,4.90
2018,12,07,22,02,4.90
2018,12,07,22,03,4.90
2018,12,07,22,04,4.90
2018,12,07,22,05,4.90
2018,12,07,22,06,4.90
2018,12,07,22,07,4.90
2018,12,07,22,08,4.90
2018,12,07,22,09,4.90
2018,12,07,22,10,4.90
2018,12,07,22,11,4.90
2018,12,07,22,12,4.90
2018,12,07,22,13,4.90
2018,12,07,22,14,4.90
2018,12,07,22,15,4.90
2018,12,07,22,16,4.80
2018,12,07,22,17,4.80
2018,12,07,22,18,4.80
2018,12,07,22,19,4.80
2018,12,07,22,20,4.80
2018,12,07,22,21,4.80
2018,12,07,22,22,4.80
2018,12,07,22,23,4.80
2018,12,07,22,24,4.80
2018,12,07,22,25,4.80
2018,12,07,22,26,4.80
2018,12,07,22,27,4.80
2018,12,07,22,28,4.80
2018,12,07,22,29,4.80
2018,12,07,22,30,4.80
2018,12,07,22,31,4.80
2018,12,07,22,32,4.80
2018,12,07,22,33,4.80
2018,12,07,22,34,4.80
2018,12,07,22,35,4.70
2018,12,07,22,36,4.70
2018,12,07,22,37,4.70
2018,12,07,22,38,4.70
2018,12,07,22,39,4.70
2018,12,07,22,40,4.70
2018,12,07,22,41,4.70
2018,12,07,22,42,4.70
2018,12,07,22,43,4.70
2018,12,07,22,44,4.70
2018,12,07,22,45,4.70
2018,12,07,22,46,4.60
2018,12,07,22,47,4.60
2018,12,07,22,48,4.60
2018,12,07,22,49,4.60
2018,12,07,22,50,4.60
2018,12,07,22,51,4.60
2018,12,07,22,52,4.60
2018,12,07,22,53,4.60
2018,12,07,22,54,4.70
2018,12,07,22,55,4.70
2018,12,07,22,56,4.70
2018,12,07,22,57,4.70
2018,12,07,22,58,4.70
2018,12,07,22,59,4.70
2018,12,07,23,00,4.70
2018,12,07,23,01,4.70
2018,12,07,23,02,4.70
2018,12,07,23,03,4.80
2018,12,07,23,04,4.80
2018,12,07,23,05,4.80
2018,12,07,23,06,4.80
2018,12,07,23,07,4.80
2018,12,07,23,08,4.80
2018,12,07,23,09,4.80
2018,12,07,23,10,4.80
2018,12,07,23,11,4.80
2018,12,07,23,12,4.80
2018,12,07,23,13,4.80
2018,12,07,23,14,4.80
2018,12,07,23,15,4.80
2018,12,07,23,16,4.80
2018,12,07,23,17,4.80
2018,12,07,23,18,4.80
2018,12,07,23,19,4.80
2018,12,07,23,20,4.80
2018,12,07,23,21,4.80
2018,12,07,23,22,4.80
2018,12,07,23,23,4.80
2018,12,07,23,24,4.80
2018,12,07,23,25,4.80
2018,12,07,23,26,4.80
2018,12,07,23,27,4.80
2018,12,07,23,28,4.80
2018,12,07,23,29,4.80
2018,12,07,23,30,4.70
2018,12,07,23,31,4.70
2018,12,07,23,32,4.70
2018,12,07,23,33,4.70
2018,12,07,23,34,4.70
2018,12,07,23,35,4.70
2018,12,07,23,36,4.70
2018,12,07,23,37,4.70
2018,12,07,23,38,4.60
2018,12,07,23,39,4.60
2018,12,07,23,40,4.60
2018,12,07,23,41,4.60
2018,12,07,23,42,4.60
2018,12,07,23,43,4.60
2018,12,07,23,44,4.60
2018,12,07,23,45,4.60
2018,12,07,23,46,4.60
2018,12,07,23,47,4.60
2018,12,07,23,48,4.50
2018,12,07,23,49,4.50
2018,12,07,23,50,4.50
2018,12,07,23,51,4.50
2018,12,07,23,52,4.50
2018,12,07,23,53,4.50
2018,12,07,23,54,4.40
2018,12,07,23,55,4.40
2018,12,07,23,56,4.40
2018,12,07,23,57,4.40
2018,12,07,23,58,4.40
2018,12,07,23,59,4.40
